www.pogodaiklimat.ru

Погода и климат >> Архив погоды >> Пакистан >> Сиялкот


ПОГОДА в Сиялкоте

  • Прогноз погоды в Сиялкоте
  • Монитор погоды в Сиялкоте

АРХИВ ПОГОДЫ в Сиялкоте

Время (UTC), дата Ветер
(напр.,м/с)
 
Видим.   Явления Облачность Т
(С)
Тd
(С)
f
(%)
Тe
(С)
Тes
(С)
Комфортность P
(гПа)
Po
(гПа)
Тmin
(С)
Tmax
(С)
R
(мм)
R24
(мм)
S
(см)
18 14.05 штиль 0 4000 м 5/5 1000 м
[Sc]
+27.0 +17.6 56 +31 +31 душно 1004.1 1000.0
21 14.05 В 1 4000 м 4/4 1000 м
[Sc]
+25.0 +15.3 55 +28 +28 жарко 1004.3 975.3
00 15.05 штиль 0 4000 м 3/3 1000 м
[Sc]
+23.0 +15.6 63 +27 +27 душно 1004.8 975.9
03 15.05 штиль 0 4000 м 8/4 1000 м
[Sc Ac As]
+25.0 +17.0 61 +29 +32 душно 1006.5 977.7 +21.7
06 15.05 З 1 4000 м 8/4 1000 м
[Sc Ac As]
+30.0 +16.6 44 +33 +41 душно 1008.0 979.7
09 15.05 С 1 4000 м 8/4 1000 м
[Sc Ac As]
+33.0 +15.5 35 +35 +42 душно 1005.6 977.3
12 15.05 С 1 4000 м 8/4 1000 м
[Sc Ac As]
+32.0 +16.2 39 +35 +36 очень
душно
1004.7 976.6 +34.1
15 15.05 штиль 0 4000 м 4/0
[Ac trans]
+27.5 +15.3 47 +30 +30 жарко 1004.6 1000.0
18 15.05 штиль 0 4000 м 4/0
[Ac trans]
+24.0 +15.8 60 +27 +27 жарко 1006.1 977.2
21 15.05 СЗ 2 4000 м 6/3 1000 м
[Sc diur, vesp Ac As]
+21.0 +15.1 69 +25 +25 комфорт 1006.1 976.6
00 16.05 штиль 0 2000 м слаб. морось {гроза} 8/4 1000 м
[Sc diur, vesp Ac As]
+19.0 +14.7 76 +20 +20 1006.5 977.1 0.0
03 16.05 В 2 4000 м 6/3 1000 м
[Sc diur, vesp Ac As]
+25.0 +16.1 58 +28 +32 жарко 1007.0 978.2 +18.5
06 16.05 ЮВ 2 4000 м 9/4 1000 м
[Sc Ac As]
+30.0 +14.5 39 +32 +37 жарко 1008.8 980.5
09 16.05 ЮВ 1 4000 м 9/4 1000 м
[Sc Ac As]
+31.5 +15.5 38 +34 +39 душно 1007.5 1000.0
12 16.05 штиль 0 4000 м 9/4 1000 м
[Sc Ac As]
+31.0 +16.9 43 +35 +36 очень
душно
1005.9 977.7 +32.0
15 16.05 штиль 0 4000 м 4/0
[Ac As]
+29.0 +18.0 51 +33 +33 очень
душно
1007.4 1000.0
18 16.05 штиль 0 4000 м 4/0
[Ac As]
+26.0 +18.2 62 +31 +31 очень
душно
1007.4 979.8
21 16.05 штиль 0 4000 м 3/0
[Ac As]
+23.0 +17.4 71 +28 +28 душно 1008.1 978.8
00 17.05 штиль 0 4000 м 4/0
[Ac As]
+21.0 +16.9 77 +24 +24 комфорт 1007.1 978.0
03 17.05 штиль 0 4000 м 6/3 1000 м
[Sc Ac As]
+25.0 +17.9 65 +29 +34 душно 1008.6 979.7 +20.2
06 17.05 ЮЗ 1 4000 м 9/4 1000 м
[Sc Ac As]
+29.5 +15.9 44 +33 +39 душно 1007.8 979.4
09 17.05 ЮЗ 2 4000 м 9/4 1000 м
[Sc Ac As]
+28.0 +15.9 48 +31 +36 душно 1006.5 1000.0
12 17.05 ЮЗ 1 4000 м 10/5 1000 м
[Sc As op]
+26.5 +15.0 49 +29 +30 жарко 1005.5 977.0 +30.9
15 17.05 штиль 0 4000 м 9/4 1000 м
[Sc diur, vesp Ac As]
+22.0 +16.3 70 +26 +26 душно 1006.5 1000.0 0.0
18 17.05 штиль 0 4000 м 8/4 1000 м
[Sc diur, vesp Ac As]
+20.0 +15.8 77 +22 +22 комфорт 1008.0 978.7
21 17.05 СЗ 1 4000 м 8/4 1000 м
[Sc diur, vesp Ac As]
+19.0 +14.7 76 +22 +22 комфорт 1010.0 1000.0
00 18.05 СЗ 1 4000 м 9/4 1000 м
[Sc diur, vesp Ac As]
+19.0 +14.7 76 +21 +21 комфорт 1009.7 980.3
03 18.05 В 1 4000 м 6/3 1000 м
[Sc diur, vesp Ac As]
+26.0 +14.4 49 +28 +33 жарко 1008.3 979.6 +18.5
06 18.05 штиль 0 4000 м 3/3 1000 м
[Sc]
+31.0 +14.8 37 +33 +52 опасность
солнечного
удара
1007.7 979.5
09 18.05 штиль 0 4000 м ясно +34.5 +14.4 30 +36 +59 опасность
солнечного
удара
1005.4 1000.0
12 18.05 ЮЗ 2 4000 м 3/0 1000 м
[Ac As]
+35.0 +14.1 29 +36 +39 очень
жарко
1003.6 975.8 +35.5
15 18.05 штиль 0 4000 м ясно +30.0 +14.5 39 +32 +32 жарко 1005.2 1000.0
18 18.05 ЮЗ 1 4000 м 4/0
[Ac trans]
+26.0 +14.4 49 +28 +28 жарко 1006.8 978.1
21 18.05 ЮЗ 1 4000 м 4/0
[Ac trans]
+24.0 +14.9 57 +27 +27 жарко 1006.9 1000.0
00 19.05 штиль 0 4000 м 4/0
[Ac trans]
+22.0 +13.4 58 +25 +25 комфорт 1007.8 978.6
03 19.05 В 1 4000 м ясно +30.0 +15.6 42 +33 +42 душно 1007.3 979.0 +21.5
06 19.05 ЮЗ 1 4000 м ясно +34.0 +15.9 34 +36 +60 опасность
солнечного
удара
1007.1 979.1
09 19.05 ЮЗ 1 4000 м ясно +36.5 +15.2 28 +38 +58 опасность
солнечного
удара
1005.0 1000.0
12 19.05 ЮЗ 1 4000 м ясно +36.0 +14.5 28 +37 +41 душно 1003.5 975.8 +37.8
15 19.05 штиль 0 4000 м 4/0
[Ac As]
+31.0 +16.9 43 +35 +35 очень
душно
1005.6 1000.0
18 19.05 СЗ 2 4000 м 10/5
[Sc As op]
+27.5 +15.3 47 +30 +30 жарко 1008.1 979.6
21 19.05 СЗ 1 4000 м 10/5 1000 м
[Sc As op]
+25.0 +14.1 51 +27 +27 жарко 1008.4 1000.0
00 20.05 штиль 0 4000 м 3/3 1000 м
[Sc]
+23.0 +14.6 59 +27 +27 душно 1008.2 979.2
03 20.05 штиль 0 4000 м 3/3 1000 м
[Sc]
+27.0 +15.3 49 +30 +37 душно 1009.4 980.8 +21.6
06 20.05 СЗ 1 4000 м ясно +34.0 +13.7 29 +35 +60 опасность
солнечного
удара
1009.7 981.4
09 20.05 СЗ 1 4000 м ясно +37.0 +12.0 22 +36 +58 опасность
солнечного
удара
1007.3 1000.0
12 20.05 З 2 4000 м ясно +37.0 +12.5 23 +37 +40 очень
жарко
1005.9 978.3 +38.1
15 20.05 З 1 4000 м 3/3 1000 м
[Sc]
+33.0 +16.3 37 +36 +36 очень
душно
1006.3 1000.0
18 20.05 З 1 4000 м 3/3 1000 м
[Sc]
+29.0 +14.2 40 +31 +31 жарко 1006.7 978.3
21 20.05 штиль 0 4000 м 3/3 1000 м
[Sc]
+26.5 +16.0 52 +30 +30 душно 1007.0 1000.0
00 21.05 штиль 0 4000 м 3/3 1000 м
[Sc]
+25.0 +17.0 61 +29 +29 душно 1005.2 976.5
03 21.05 З 1 4000 м ясно +29.0 +14.7 42 +31 +41 жарко 1007.0 978.6 +22.9
06 21.05 В 1 4000 м ясно +36.0 +10.7 22 +35 +61 опасность
солнечного
удара
1006.3 978.5
09 21.05 З 1 4000 м 3/3 1000 м
[Sc]
+39.0 +9.2 17 +37 +52 опасность
солнечного
удара
1005.7 1000.0
12 21.05 З 1 4000 м 3/3 1000 м
[Sc]
+40.0 +9.7 16 +38 +41 очень
жарко
1003.5 976.2 +40.3

 

Местоположение метеостанции Сиялкот (Пакистан): широта 32.50 долгота 74.53 высота над уровнем моря 256 м.

В архиве по умолчанию представлена погода в Сиялкоте за последнюю неделю. Архивные данные за месяц целиком и за предыдущие месяцы, начиная с января 2011 года, Вы можете получить, выбрав интересующий диапазон дат из раскрывающегося списка и нажав кнопку "Ввод!".


*Определитесь, кто Вы:
робот инопланетянин человек

Внимание! Время в таблицах - всемирное. Для получения местного времени необходимо прибавить поправку, которая равна 5 ч.

Смотрите также архив погоды в соседних городах и на ближайших метеорологических станциях:

Погода в Джамму (Джамму и Кашмир, Индия) (34 км)
Погода в Гуджрате (Пакистан) (40 км)
Погода в Сиалкот аэропорту (Пакистан) (47 км)
Погода в Гуджранвале (Пакистан) (53 км)
Погода в Наровале (Пакистан) (53 км)
Погода в Катре (Джамму и Кашмир, Индия) (66 км)
Погода в Джеламе (Пакистан) (90 км)
Погода в Хафизабаде (Пакистан) (95 км)
Погода в Батоте (Джамму и Кашмир, Индия) (100 км)
Погода в Амритсаре (Пенджаб, Индия) (102 км)

Пояснения к столбцам:

Ветер - указаны скорость ветра в м/с - средняя за 10 мин, порывы в срок и между сроками (в фигурных скобках) и направление, откуда дует ветер: С - северный, СВ - северо-восточный, В - восточный, ЮВ - юго-восточный, Ю - южный, ЮЗ - юго-западный, З - западный, СЗ - северо-западный.
Видимость - горизонтальная дальность видимости в метрах или километрах. При видимости от 1 до 10 км при отсутствии осадков обычно наблюдается дымка, при ухудшении видимости до 1 км и менее - туман. В сухую погоду видимость может ухудшаться дымом, пылью или мглою.
Явления - указаны атмосферные явления, наблюдавшиеся в срок или в последний час перед сроком; фигурными скобками обозначены явления, наблюдавшиеся между сроками (за 1-3 часа до срока); квадратными скобками обозначены град или гололедные отложения с указанием их диаметра в мм.
Облачность - указаны через наклонную черту общая и нижняя облачность в баллах и высота нижней границы облаков в метрах; квадратными скобками обозначены формы облаков: Ci - перистые, Cs - перисто-слоистые, Cc - перисто-кучевые, Ac - высококучевые, As - высокослоистые, Sc - слоисто-кучевые, Ns - слоисто-дождевые, Cu - кучевые, Cb - кучево-дождевые. Подробнее классификацию облаков см. в Атласе облаков (PDF).
T - Температура воздуха - температура, измеренная на высоте 2 м над землей.
Td - Температура точки росы - температура, при понижении до которой содержащийся в воздухе водяной пар достигнет насыщения.
f - Относительная влажность воздуха - влажноcть воздуха, измеренная на высоте 2 м над землей.
Te - Эффективная температура - температура, которую ощущает одетый по сезону человек в тени. Характеристика душности погоды. При расчете учитывается влияние влажности воздуха и скорости ветра на теплоощущения человека.
Tes - Эффективная температура на солнце - температура, которую ощущает человек, с поправкой на солнечный нагрев. Характеристика знойности погоды. Зависит от высоты солнца над горизонтом, облачности и скорости ветра. Ночью, в пасмурную погоду, а также при ветре 12 м/с и более поправка равна нулю.
P - Атмосферное давление - приведенное к уровню моря атмосферное давление.
Po - Атмосферное давление - измеренное на уровне метеостанции атмосферное давление.
Tmin - Минимальная температура - минимум температуры воздуха на высоте 2 м над землей.
Tmax - Максимальная температура - максимум температуры воздуха на высоте 2 м над землей.
R - Количество осадков - Количество выпавших осадков за период времени, мм. При наведении курсора мыши на число - период времени, за который выпало указанное количество осадков.
R24 - Количество осадков - Количество выпавших осадков за 24 часа, мм.
S - Снежный покров - Высота снежного покрова, см. При наведении курсора мыши на число - состояние снежного покрова и степень покрытия местности в баллах.